Regional Weather Roundup
Issued by NWS

Home | Current Version | Previous Version | Graphics & Text | Print | Product List | Glossary On
Versions: 1 2 3 4 5 6 7 8 9 10 11 12 13 14 15 16 17 18 19 20 21 22 23 24 25 26 27 28 29 30 31 32 33 34 35 36 37 38 39 40 41 42 43 44 45 46 47 48 49 50
000
ASUS43 KOAX 222002
RWRNE

WEATHER ROUNDUP FOR NEBRASKA
NATIONAL WEATHER SERVICE OMAHA NE
200 PM CST SUN JAN 22 2017

NOTES: SATELLITE DATA IS BEING USED TO AUGMENT CLOUD COVER ABOVE
       12000 FEET.
       "FAIR" INDICATES FEW OR NO CLOUDS BELOW 12,000 FEET WITH NO
       SIGNIFICANT WEATHER AND/OR OBSTRUCTIONS TO VISIBILITY.

  * THESE STATIONS DO NOT REPORT WEATHER SUCH AS RAIN...SNOW OR FOG.

NEZ001>004-019>022-054>056-222100-
NEBRASKA PANHANDLE

CITY           SKY/WX    TMP DP  RH WIND       PRES   REMARKS
SCOTTSBLUFF    SUNNY     45  20  36 W16       29.88F
ALLIANCE       SUNNY     45  24  43 W18       29.85F
CHADRON        SUNNY     38  28  67 NW16      29.87F WCI  29
KIMBALL        SUNNY     43  21  42 NW16G25   29.89F
SIDNEY         SUNNY     45  20  36 NW20      29.88F
$$

NEZ057>060-069>072-079>082-222100-
SOUTHWEST NEBRASKA

CITY           SKY/WX    TMP DP  RH WIND       PRES   REMARKS
NORTH PLATTE   SUNNY     48  30  49 W12       29.85F
IMPERIAL       SUNNY     46  26  45 NW15      29.87F
LEXINGTON      SUNNY     48  31  51 NW12      29.84S
MCCOOK         SUNNY     49  27  42 NW15      29.86F
OGALLALA       SUNNY     46  29  51 NW14      29.86F
$$

NEZ005>010-023>029-035>040-094-222100-
NORTH CENTRAL NEBRASKA

CITY           SKY/WX    TMP DP  RH WIND       PRES   REMARKS
VALENTINE      SUNNY     42  27  55 NW14      29.83S
AINSWORTH      SUNNY     44  29  55 NW14      29.82S
BROKEN BOW     SUNNY     47  31  53 NW13      29.81F
O`NEILL        SUNNY     44  30  58 NW10      29.81F
ORD            SUNNY     46  30  53 NW14      29.80F
THEDFORD       SUNNY     49  28  44 NW10      29.83S
$$

NEZ041-046>049-061>064-073>077-083>087-222100-
SOUTH CENTRAL NEBRASKA

CITY           SKY/WX    TMP DP  RH WIND       PRES   REMARKS
GRAND ISLAND   SUNNY     46  30  53 N13       29.82F
AURORA         SUNNY     42  33  69 N13       29.82F
HASTINGS       SUNNY     45  30  55 N17       29.83F
HEBRON         MOSUNNY   41  33  73 N13       29.81F
HOLDREGE       SUNNY     47  32  55 NW14      29.83F
KEARNEY *      SUNNY     48  30  49 NW10G18   29.82F
YORK           SUNNY     39  36  87 NW15      29.82S WCI  31
$$

NEZ011>018-030>034-042>045-222100-
NORTHEAST NEBRASKA

CITY           SKY/WX    TMP DP  RH WIND       PRES   REMARKS
NORFOLK        SUNNY     41  31  67 NW10      29.80F
ALBION         SUNNY     43   6  21 N8G17     29.80F
BLAIR          CLOUDY    37  33  87 NW13      29.78S WCI  29
FREMONT        CLOUDY    39  35  84 NW15      29.81S WCI  31
TEKAMAH        CLOUDY    37  33  85 NW15      29.80S WCI  28
WAYNE          CLOUDY    35  32  90 N9        29.81S WCI  27
$$

NEZ050>053-065>068-078-088>093-222100-
SOUTHEAST NEBRASKA

CITY           SKY/WX    TMP DP  RH WIND       PRES   REMARKS
LINCOLN        CLOUDY    38  32  79 NW15      29.83R WCI  29
OMAHA EPPLEY   CLOUDY    37  31  78 N8        29.80R WCI  31
BEATRICE       CLOUDY    38  34  84 NW16      29.81R WCI  29
FALLS CITY     CLOUDY    38  32  79 NW14G21   29.77F WCI  30
NEBRASKA CITY  CLOUDY    37  32  84 N13       29.78S WCI  28
PLATTSMOUTH    CLOUDY    37  32  81 NW13      29.78R WCI  29
$$

NEZ044-045-051>053-067-222100-
OMAHA AREA

CITY           SKY/WX    TMP DP  RH WIND       PRES   REMARKS
OMAHA EPPLEY   CLOUDY    37  31  78 N8        29.80R WCI  31
BLAIR          CLOUDY    37  33  87 NW13      29.78S WCI  29
FREMONT        CLOUDY    39  35  84 NW15      29.81S WCI  31
MILLARD        CLOUDY    39  34  82 NW10G20   29.80R WCI  33
OFFUTT AFB     CLOUDY    38  37  98 NW12      29.79R WCI  30
PLATTSMOUTH    CLOUDY    37  32  81 NW13      29.78R WCI  29
WAHOO          CLOUDY    37  33  87 NW12      29.81R WCI  29
$$




USA.gov is the U.S. government's official web portal to all federal, state and local government web resources and services.